Location: Newark
(35.6799°N, 139.7636°E)
Time: 06:11:17
(UTC+00:00)

Explorer 7 - Pass Details

Date: 07 December 2019
Orbit: 485 x 679 km, 50.3° (Epoch: 21 January)

Event Time Altitude Azimuth Distance (km) Brightness Sun altitude
Rises 08:13:21 0° 255° (WSW) 2,999 12.9 -9.3°
Reaches altitude 10° 08:15:51 10° 264° (W) 2,101 11.2 -9.8°
Maximum altitude 08:20:20 35° 330° (NNW) 1,086 8.4 -10.7°
Enters shadow 08:24:44 11° 36° (NE) 2,077 9.3 -11.5°
Drops below altitude 10° 08:24:50 10° 37° (NE) 2,110 - -11.5°
Sets 08:27:22 0° 46° (NE) 3,014 - -12.0°
